Starlink 36304

operational
NORAD ID: 68551 Int'l Des: 2026-070 Owner: SPXS Country: US Constellation: starlink
LEOCIRCULAR

Über Starlink 36304

Beschreibung wird geladen...

Live-Position

3D-Globus wird geladen...

Nächste Überflüge

Höhenverlauf

Altitude vs Time

uPlot chart will show altitude changes over time

Zweizeiliger Elementsatz

1 68551C 26070J 26093.79770833 .00570060 00000+0 70228-3 0 938
2 68551 53.1620 260.1300 0008657 285.4176 56.2019 16.06798622 16
Epoch: 3. Apr. 2026 • Age: 30 hours

Aktueller Status

Höhe 256.8 km
Geschwindigkeit 7.75 km/s
Subsatellitenpunkt -2.06°S, 150.24°E
Startdatum 2. Apr. 2026
Alter 1 days
Typ internet

Technische Details

Klassifizierung Payload
Masse 575.00 kg
Trockenmasse 530.00 kg
Gesamtmasse 575.00 kg
Länge 0.30 m
Durchmesser 4.10 m
Spannweite 29.00 m
Form Box + pan
Hersteller SPXS
Bus-Typ Starlink V2MO
Phasenstatus In Orbit
Besitzer/Staat SPXS/US

Große Konstellationen

Loading constellations...